Tampa Macdill AFB, FL

4:00 AM EST on December 07, 2019 (GMT -0500)
MacDill Air Force Base

Weather History for KMCF - August, 2019

Change the Weather History Date:

Thursday, August 22, 2019

  Actual Average Record
Temperature  
Mean Temperature 84 °F -  
Max Temperature 92 °F 88 °F 96 °F (2014)
Min Temperature 77 °F 73 °F 71 °F (2012)
Cooling Degree Days 20    
Growing Degree Days 34 (Base 50)    
Moisture  
Dew Point 74 °F    
Average Humidity 77    
Maximum Humidity 91    
Minimum Humidity 51    
Precipitation  
Precipitation 0.00 in - - ()
Sea Level Pressure  
Sea Level Pressure 30.05 in    
Wind  
Wind Speed 5 mph (SE)    
Max Wind Speed 12 mph    
Max Gust Speed -    
Visibility 10 miles    
Events Rain    
Averages and records for this station are not official NWS values.
T = Trace of Precipitation, MM = Missing Value Source: NWS Daily Summary

Daily Weather History Graph

Daily Weather History Graph

Search for Another Location

Airport or City:

Astronomy

Aug. 22, 2019 Rise Set
Actual Time 7:03 AM EDT 8:01 PM EDT
Civil Twilight 6:39 AM EDT 8:25 PM EDT
Nautical Twilight 6:10 AM EDT 8:54 PM EDT
Astronomical Twilight 5:41 AM EDT 9:23 PM EDT
Moon No Moon Rise 1:04 PM EDT (8/22)
Length of Visible Light 13h 46m
Length of Day
12h 57m
Waning Gibbous, 60% of the Moon is Illuminated
Aug 22
Waning Gibbous
Aug 23
Last Quarter
Aug 30
New
Sep 5
First Quarter
Sep 14
Full

Hourly Weather History & Observations

Time (EDT) Temp. Heat Index Dew Point Humidity Pressure Visibility Wind Dir Wind Speed Gust Speed Precip Events Conditions
12:01 AM 78.8 °F - 75.2 °F 89% 30.08 in 10.0 mi East 3.5 mph - N/A   Light Drizzle
12:03 AM 78.8 °F - 75.2 °F 89% 30.08 in 10.0 mi East 3.5 mph - N/A   Clear
12:23 AM 78.8 °F - 75.2 °F 89% 30.08 in 10.0 mi SE 5.8 mph - N/A   Light Drizzle
12:25 AM 78.8 °F - 75.2 °F 89% 30.08 in 10.0 mi SE 5.8 mph - N/A   Partly Cloudy
12:28 AM 78.8 °F - 75.2 °F 89% 30.08 in 10.0 mi ESE 5.8 mph - N/A   Light Drizzle
12:37 AM 78.8 °F - 75.2 °F 89% 30.08 in 10.0 mi SE 5.8 mph - N/A   Mostly Cloudy
12:54 AM 78.8 °F - 73.4 °F 83% 30.08 in 10.0 mi SE 4.6 mph - N/A Rain Light Rain
12:56 AM 79.2 °F - 73.4 °F 82% 30.08 in 10.0 mi SE 4.6 mph - 0.00 in Rain Light Rain
12:57 AM 78.8 °F - 73.4 °F 83% 30.08 in 10.0 mi SE 4.6 mph - N/A   Scattered Clouds
12:59 AM 78.8 °F - 73.4 °F 83% 30.08 in 10.0 mi SE 3.5 mph - N/A   Light Drizzle
1:04 AM 78.8 °F - 73.4 °F 83% 30.08 in 10.0 mi SE 4.6 mph - N/A   Scattered Clouds
1:06 AM 78.8 °F - 73.4 °F 83% 30.08 in 10.0 mi SE 3.5 mph - N/A   Light Drizzle
1:21 AM 78.8 °F - 73.4 °F 83% 30.07 in 10.0 mi SE 4.6 mph - N/A   Partly Cloudy
1:56 AM 79.7 °F - 73.6 °F 81% 30.06 in 10.0 mi South 5.8 mph - 0.00 in   Clear
2:05 AM 78.8 °F - 73.4 °F 83% 30.06 in 10.0 mi SE 3.5 mph - N/A   Light Drizzle
2:08 AM 78.8 °F - 73.4 °F 83% 30.06 in 10.0 mi SE 4.6 mph - N/A   Scattered Clouds
2:14 AM 78.8 °F - 73.4 °F 83% 30.05 in 10.0 mi ESE 4.6 mph - N/A   Light Drizzle
2:15 AM 78.8 °F - 73.4 °F 83% 30.05 in 10.0 mi ESE 4.6 mph - N/A   Mostly Cloudy
2:20 AM 78.8 °F - 73.4 °F 83% 30.05 in 10.0 mi ESE 4.6 mph - N/A   Light Drizzle
2:24 AM 78.8 °F - 73.4 °F 83% 30.05 in 10.0 mi SE 4.6 mph - N/A   Scattered Clouds
2:56 AM 78.1 °F - 73.4 °F 85% 30.05 in 10.0 mi East 3.5 mph - 0.00 in   Clear
3:56 AM 77.9 °F - 73.4 °F 86% 30.04 in 10.0 mi SE 3.5 mph - N/A   Clear
4:56 AM 77.5 °F - 73.6 °F 88% 30.03 in 10.0 mi ESE 3.5 mph - N/A   Clear
5:56 AM 77.2 °F - 73.9 °F 90% 30.03 in 10.0 mi SE 5.8 mph - N/A   Clear
6:56 AM 77.2 °F - 74.3 °F 91% 30.05 in 10.0 mi ESE 4.6 mph - N/A   Clear
7:56 AM 79.0 °F - 75.4 °F 89% 30.06 in 10.0 mi SE 3.5 mph - N/A   Clear
8:56 AM 82.4 °F 89.8 °F 75.6 °F 80% 30.08 in 10.0 mi ESE 4.6 mph - N/A   Clear
9:56 AM 84.9 °F 92.5 °F 74.3 °F 70% 30.09 in 10.0 mi SE 5.8 mph - N/A   Clear
10:56 AM 86.5 °F 93.8 °F 72.9 °F 64% 30.09 in 10.0 mi ESE 5.8 mph - N/A   Clear
11:56 AM 87.4 °F 95.8 °F 73.8 °F 64% 30.09 in 10.0 mi East 4.6 mph - N/A   Partly Cloudy
12:56 PM 88.7 °F 93.0 °F 69.3 °F 52% 30.07 in 10.0 mi ENE 3.5 mph - N/A   Partly Cloudy
1:56 PM 90.1 °F 97.8 °F 72.7 °F 56% 30.06 in 10.0 mi WNW 4.6 mph - N/A   Scattered Clouds
2:56 PM 90.9 °F 98.9 °F 72.9 °F 55% 30.03 in 10.0 mi West 3.5 mph - N/A   Scattered Clouds
3:56 PM 91.6 °F 99.3 °F 72.5 °F 53% 29.99 in 10.0 mi WNW 4.6 mph - N/A   Partly Cloudy
4:56 PM 92.1 °F 99.9 °F 72.0 °F 52% 29.98 in 10.0 mi NNW 3.5 mph - N/A   Clear
5:56 PM 92.3 °F 99.7 °F 72.0 °F 51% 29.98 in 10.0 mi East 5.8 mph - N/A   Clear
6:20 PM 89.6 °F 98.2 °F 73.4 °F 59% 29.98 in 10.0 mi SSE 11.5 mph - N/A   Light Drizzle
6:36 PM 87.8 °F 97.6 °F 75.2 °F 66% 29.98 in 10.0 mi ESE 8.1 mph - N/A   Mostly Cloudy
6:56 PM 88.0 °F 96.5 °F 73.8 °F 63% 29.98 in 10.0 mi SE 8.1 mph - 0.00 in   Scattered Clouds
7:56 PM 86.4 °F 95.1 °F 74.5 °F 68% 30.00 in 10.0 mi SE 10.4 mph - N/A   Clear
8:56 PM 85.1 °F 91.8 °F 73.2 °F 67% 30.01 in 10.0 mi SE 9.2 mph - N/A   Clear
9:56 PM 83.7 °F 90.4 °F 73.9 °F 72% 30.03 in 10.0 mi SE 10.4 mph - N/A   Clear
10:56 PM 82.0 °F 87.7 °F 73.6 °F 75% 30.04 in 10.0 mi SE 8.1 mph - N/A   Clear
11:56 PM 80.8 °F 86.1 °F 74.3 °F 81% 30.03 in 10.0 mi SE 5.8 mph - N/A   Clear